FW4632 Weather Reports


time (UTC)temp
C
wind
direction
speed
KPH
gust
KPH
rain 1hr
cm
rain 24hr
cm
rain mn
cm
humidity
%
barometer
mb
20260506091559 1 172 1.6 4.8 0.05 0.43 0.20 84 1007.7
20260506090100 1 200 1.6 8.0 0.05 0.48 0.20 86 1007.6
20260506084558 0 176 3.2 11.3 0.05 0.46 0.18 88 1007.6
20260506083058 0 260 6.4 12.9 0.10 0.46 0.18 90 1007.5
20260506081552 0 291 3.2 8.0 0.10 0.43 0.15 87 1007.3
20260506080104 1 270 3.2 6.4 0.15 0.51 0.15 92 1007.2
20260506073052 -1 327 3.2 6.4 0.08 0.43 0.08 91 1006.9
20260506071543 0 240 0.0 4.8 0.05 0.41 0.05 92 1006.8
20260506061536 0 240 4.8 8.0 0.00 0.33 0.00 93 1006.3
20260506044536 -1 240 8.0 12.9 0.00 0.33 0.00 94 1005.5
20260506043024 -1 247 6.4 11.3 0.00 0.33 0.00 94 1005.4
20260506041527 -1 180 4.8 8.0 0.00 0.33 0.00 94 1005.2
20260506040019 -2 300 3.2 6.4 0.00 0.33 0.00 94 1005.2
20260506034519 -2 311 4.8 6.4 0.00 0.33 0.00 94 1005.1
20260506033017 -2 291 4.8 8.0 0.00 0.33 0.00 93 1005.0
20260506031517 -2 248 0.0 3.2 0.00 0.33 0.00 93 1004.9
20260506030013 -2 243 4.8 9.7 0.00 0.33 0.00 94 1004.7
20260506024517 -2 292 3.2 8.0 0.00 0.33 0.00 93 1004.6
20260506023017 -2 318 3.2 4.8 0.00 0.33 0.00 93 1004.5
20260506021508 -2 316 3.2 8.0 0.00 0.33 0.00 93 1004.4
20260506020006 -2 310 4.8 9.7 0.00 0.33 0.00 95 1004.3
20260506014505 -2 246 4.8 8.0 0.00 0.33 0.00 95 1004.3
20260506013003 -2 231 4.8 8.0 0.00 0.33 0.00 95 1004.2
20260506011624 -2 259 1.6 4.8 0.00 0.33 0.00 95 1004.1
20260506010119 -2 259 0.0 3.2 0.00 0.33 0.00 95 1004.1
20260506004557 -2 250 0.0 3.2 0.00 0.33 0.00 95 1004.0
20260506003058 -2 250 1.6 3.2 0.00 0.33 0.00 96 1004.0
20260506001557 -2 250 0.0 3.2 0.00 0.33 0.00 95 1003.9
20260506000058 -2 250 0.0 4.8 0.00 0.33 0.00 95 1003.9
20260505234551 -1 250 3.2 4.8 0.00 0.33 0.00 95 1003.8
20260505233049 -1 245 3.2 6.4 0.00 0.33 0.00 96 1003.8
20260505231546 -2 282 3.2 4.8 0.00 0.33 0.00 95 1003.8
20260505230045 -1 281 1.6 4.8 0.00 0.33 0.00 95 1003.7
20260505224544 -1 269 0.0 3.2 0.00 0.33 0.00 95 1003.6
20260505223043 -1 269 1.6 4.8 0.00 0.33 0.00 95 1003.6
20260505221546 -2 296 3.2 3.2 0.00 0.33 0.00 95 1003.5
20260505220052 -1 296 0.0 3.2 0.00 0.33 0.33 95 1003.5
20260505214541 -1 301 4.8 6.4 0.00 0.33 0.33 95 1003.4
20260505213039 -1 305 0.0 4.8 0.00 0.33 0.33 95 1003.4
20260505211539 -1 306 0.0 6.4 0.00 0.33 0.33 95 1003.3
20260505210044 -1 260 1.6 6.4 0.00 0.33 0.33 95 1003.2
20260505204532 -1 259 6.4 9.7 0.00 0.33 0.33 95 1003.1
20260505203033 -1 241 4.8 11.3 0.00 0.33 0.33 95 1003.0
20260505201530 -1 264 4.8 8.0 0.00 0.33 0.33 95 1003.0
20260505200030 -1 273 4.8 8.0 0.00 0.33 0.33 95 1002.9
20260505194529 -1 256 4.8 9.7 0.00 0.33 0.33 95 1002.8
20260505193035 -1 245 6.4 9.7 0.00 0.33 0.33 95 1002.8
20260505191526 -1 238 6.4 9.7 0.00 0.33 0.33 94 1002.7
20260505190025 -1 245 4.8 9.7 0.03 0.33 0.33 95 1002.6
20260505184526 0 241 8.0 11.3 0.05 0.33 0.33 95 1002.5
20260505183034 0 180 6.4 12.9 0.05 0.33 0.33 95 1002.5
20260505181522 0 220 6.4 11.3 0.05 0.33 0.33 95 1002.3
20260505180024 0 240 6.4 14.5 0.05 0.33 0.33 95 1002.2
20260505174519 0 180 8.0 12.9 0.03 0.30 0.30 95 1002.2
20260505173019 0 252 6.4 9.7 0.05 0.30 0.30 95 1002.1
20260505171517 0 240 8.0 9.7 0.03 0.28 0.28 95 1002.0
20260505170017 0 259 4.8 8.0 0.03 0.28 0.28 95 1002.0
20260505164516 0 278 6.4 11.3 0.03 0.28 0.28 95 1002.0
20260505163014 0 180 6.4 11.3 0.03 0.25 0.25 94 1001.8
20260505161513 0 274 11.3 14.5 0.05 0.25 0.25 94 1001.8
20260505153009 0 180 8.0 14.5 0.05 0.23 0.23 94 1001.5
20260505151509 0 232 6.4 9.7 0.03 0.23 0.23 94 1001.4
20260505140108 0 245 9.7 16.1 0.03 0.20 0.20 93 1000.8
20260505124558 0 221 9.7 14.5 0.00 0.18 0.18 93 1000.3
20260505123055 0 180 8.0 14.5 0.00 0.18 0.18 93 1000.3
20260505121547 0 260 8.0 14.5 0.00 0.18 0.18 93 1000.2
20260505120059 0 180 11.3 17.7 0.03 0.18 0.18 93 1000.1
20260505114543 0 255 11.3 16.1 0.05 0.18 0.18 94 999.9
20260505113049 0 248 12.9 19.3 0.05 0.18 0.18 93 999.8
20260505111539 0 240 9.7 12.9 0.05 0.18 0.18 94 999.7
20260505101531 0 180 17.7 25.7 0.05 0.15 0.15 92 999.0
20260505100031 0 252 17.7 22.5 0.03 0.13 0.13 92 999.0
20260505094531 -1 273 17.7 24.1 0.05 0.13 0.13 92 998.9
20260505093028 -1 249 14.5 20.9 0.05 0.13 0.13 93 998.8